Regional Weather Roundup
Issued by NWS Newport/Morehead, NC

Current Version | Previous Version | Text Only | Print | Product List | Glossary Off
Versions: 1 2 3 4 5 6 7 8 9 10 11 12 13 14 15 16 17 18 19 20 21 22 23 24 25 26 27 28 29 30 31 32 33 34 35 36 37 38 39 40 41 42 43 44 45 46 47 48 49 50
000 ASUS42 KMHX 170725 RWRMHX WEATHER ROUNDUP FOR EASTERN NORTH CAROLINA NATIONAL WEATHER SERVICE NEWPORT/MOREHEAD CITY NC 200 AM EST TUE JAN 17 2017 NOTE: "FAIR" INDICATES FEW OR NO CLOUDS BELOW 12,000 FEET WITH NO SIGNIFICANT WEATHER AND/OR OBSTRUCTIONS TO VISIBILITY NCZ015>017-031-032-045>047-102-103-170800- NORTH COAST CITY SKY/WX TMP DP RH WIND PRES REMARKS EDENTON CLOUDY 45 42 89 CALM 30.30S ELIZABETH CITY CLOUDY 42 39 89 N3 30.29F KITTY HAWK NOT AVBL MANTEO MOCLDY 42 40 93 CALM 30.29F $$ NCZ045>047-081-094-103-104-170800- CENTRAL COAST CITY SKY/WX TMP DP RH WIND PRES REMARKS FRISCO MOCLDY 47 43 86 N5 30.28F $$ NCZ095-097-098-100-101-170800- SOUTHERN COAST CITY SKY/WX TMP DP RH WIND PRES REMARKS BEAUFORT CLOUDY 48 43 82 CALM 30.28F CEDAR ISLAND NOT AVBL JACKSONVILLE CLOUDY 49 46 90 CALM 30.28F PINEY ISLAND CLOUDY N/A N/A N/A N5 30.28F WILMINGTON PTCLDY 49 47 93 NE5 30.27F $$ NCZ011>013-027>030-043-044-078>080-089-090>093-098-170800- COASTAL PLAIN CITY SKY/WX TMP DP RH WIND PRES REMARKS AHOSKIE N/A 42 40 93 CALM 30.29F CLINTON CLOUDY 49 46 88 CALM 30.29S ELIZABETHTOWN MOCLDY 49 47 93 CALM 30.28R GOLDSBORO CLOUDY 48 46 93 CALM 30.27S GREENVILLE CLOUDY 46 43 87 CALM 30.29F HAVELOCK CLOUDY 47 43 86 NE3 30.30F KENANSVILLE CLOUDY 48 45 87 CALM 30.29R KINSTON CLOUDY 49 45 85 CALM 30.29F NEW BERN MOCLDY 46 42 86 N3 30.30F RICHLANDS CLOUDY 45 44 97 NE3 30.29F ROCKY MOUNT CLOUDY 47 44 90 CALM 30.29F WASHINGTON CLOUDY 45 40 81 CALM 30.30F WHITEVILLE CLOUDY 49 47 92 CALM 30.27S $$ AMZ130-135-150-152-154-156-158-170-250-252-270-ANZ085-086-088-633-658-670-170800- MARINE OBSERVATIONS STATION/POSITION TIME TEMP WIND PRES WAVE SWELL AIR SEA DIR/SP/G HT/PER HT/PER (UTC) (F) (DEG/KT/KT) (MB) (FT/S) (FT/S) CHESAPEAKE LIGHT NOT AVBL 64 E VA BEACH 0650 54 58 350/ 6/ 8 1025.2 2/ 9 2/ 9 DUCK 0700 44 44 350/ 6/ 6 1025.0 2 E DUCK 0700 44 N/A 2/ 9 OREGON INLET 0700 45 48 330/ 6/ 7 1025.5 13E OREGON INLT NOT AVBL HATTERAS CG 0700 47 52 10/ 6/ 6 1025.0 DIAMOND BUOY 0650 56 73 10/ 10/ 12 1025.3 3/10 3/10 CAPE LOOKOUT 0700 49 20/ 4/ 4 1024.9 BEAUFORT LAB 0700 47 49 10/ 3/ 4 1024.5 30 SE NEW RVR IN 0708 57 61 80/ 8/ 10 1025.0 30 SE NEW RVR IN 0713 61 N/A 3/11 2/11 27 SE WRIGHTSVLE 0708 61 68 90/ 8/ 12 1024.5 5 SE WRIGHTSVLE NOT AVBL 225 S CAPE HAT 0650 70 72 170/ 12/ 16 1025.5 3/ 8 3/ 8 41 SE CHARLESTON 0650 70 70 120/ 4/ 6 1024.3 4/ 9 3/ 9 $$

USA.gov is the U.S. government's official web portal to all federal, state and local government web resources and services.